www.pogodaiklimat.ru

Погода и климат >> Архив погоды >> Китай >> Shisan Jianfang


ПОГОДА в Shisan Jianfang

  • Прогноз погоды в Shisan Jianfang
  • Монитор погоды в Shisan Jianfang
  • Климат города

АРХИВ ПОГОДЫ в Shisan Jianfang

Время (UTC), дата Ветер
(напр.,м/с)
 
Видим.   Явления Облачность Т
(С)
Тd
(С)
f
(%)
Тe
(С)
Тes
(С)
Комфортность P
(гПа)
Po
(гПа)
Тmin
(С)
Tmax
(С)
R
(мм)
R24
(мм)
S
(см)
12 16.06 С 10 30 км 8/8 1500 м
[]
+37.7 -3.9 7 +34 +34 очень
жарко
995.6 919.0
18 16.06 СВ 11 30 км ?/? +32.4 +0.5 13 +29 +29 жарко 995.9 919.7 +40.7
21 16.06 С 9 30 км ?/? +31.6 +0.9 14 +29 +29 жарко 996.2 996.0
00 17.06 С 12 30 км 9/9 1500 м
[]
+31.1 +2.3 16 +29 +29 жарко 997.6 998.0
03 17.06 С 13
{18}
30 км 9/9 1500 м
[]
+33.4 +5.9 18 +31 +31 жарко 998.8 999.0
06 17.06 С 10
{18}
30 км 9/9 1500 м
[]
+36.3 +4.6 14 +33 +34 жарко 997.6 1011.0 +30.5
09 17.06 С 13
{21}
30 км 9/9 1500 м
[]
+35.7 +5.1 15 +33 +33 жарко 996.9 997.0
12 17.06 СВ 16
{21}
30 км 9/9 1500 м
[]
+32.9 +5.5 18 +31 +31 жарко 997.2 920.1
18 17.06 С 11
{18}
30 км ?/? +27.3 +6.7 27 +27 +27 жарко 998.6 921.4 +37.4
21 17.06 С 13 30 км ?/? +28.7 +5.5 23 +27 +27 жарко 998.4 998.0
00 18.06 С 12
{18}
30 км 9/9 1500 м
[]
+29.2 +7.2 25 +28 +28 жарко 1000.1 1012.5
03 18.06 С 13
{18}
30 км 9/9 1500 м
[]
+33.0 +7.8 21 +31 +31 жарко 1000.7 1001.0
06 18.06 С 9
{18}
30 км 9/9 1500 м
[]
+35.3 +6.6 17 +33 +33 жарко 999.8 1000.0 +27.2
09 18.06 С 10
{18}
30 км 9/9 1500 м
[]
+35.7 +6.9 17 +33 +34 жарко 998.9 999.0
12 18.06 С 14
{17}
30 км 9/9 1500 м
[]
+32.9 +9.7 24 +32 +32 жарко 999.8 1000.0
18 18.06 С 11
{21}
30 км ?/? +27.4 +11.0 36 +28 +28 жарко 1002.9 1003.0 +36.4
21 18.06 С 12
{22}
30 км ?/? +24.7 +11.3 43 +26 +26 жарко 1003.3 1003.0
00 19.06 С 14
{22}
30 км 9/9 1500 м
[]
+24.3 +10.9 43 +26 +26 жарко 1004.8 1004.3
03 19.06 С 10
{19}
30 км 9/9 1500 м
[]
+28.6 +10.8 33 +29 +29 жарко 1005.2 1005.0
06 19.06 С 10
{18}
30 км 4/4 1500 м
[]
+32.6 +8.1 22 +31 +32 жарко 1003.0 1003.0 +23.2
09 19.06 С 10 30 км 8/8 1500 м
[]
+32.3 +6.5 20 +30 +31 жарко 1001.5 1002.0
12 19.06 С 13
{17}
30 км 4/4 1500 м
[]
+31.0 +8.1 24 +30 +30 жарко 1001.1 922.7
18 19.06 С 8
{17}
30 км ?/? +26.5 +9.8 35 +27 +27 жарко 1000.3 1000.0 +34.3
21 19.06 С 7 30 км ?/? +25.9 +10.1 37 +27 +27 жарко 999.8 1000.0
00 20.06 С 9 30 км 4/4 1500 м
[]
+27.5 +9.3 32 +28 +28 жарко 1000.2 1000.0
03 20.06 С 11 30 км 3/3 1500 м
[]
+31.2 +9.4 26 +31 +31 жарко 999.4 999.0
06 20.06 С 7 30 км в посл. час ливневой дождь 9/9 1500 м
[]
+28.5 +13.2 39 +30 +31 жарко 999.0 997.5 +24.9 0.8
09 20.06 СВ 12 30 км 8/8 1500 м
[]
+35.2 +7.3 18 +33 +33 жарко 995.6 996.0
12 20.06 С 8 30 км ясно +34.7 +6.9 18 +33 +33 жарко 994.6 995.0
18 20.06 С 10 30 км ?/? +28.7 +6.7 25 +28 +28 жарко 997.4 997.0 +36.9
21 20.06 В 9 30 км ?/? +27.8 +7.6 28 +27 +27 жарко 997.4 997.0
00 21.06 СВ 11 30 км ясно +30.5 +8.3 25 +30 +30 жарко 997.6 998.0
03 21.06 С 10 30 км ясно +34.6 +8.4 20 +33 +34 жарко 998.4 998.0
06 21.06 С 6 30 км 3/3 1500 м
[]
+37.5 +5.5 14 +35 +40 очень
жарко
996.6 997.0 +26.9
09 21.06 В 11
{18}
30 км 8/8 1500 м
[]
+35.9 +5.2 15 +33 +33 жарко 996.2 996.0
12 21.06 Ю 3
{18}
30 км 9/9 1500 м
[]
+35.6 +5.9 16 +33 +33 жарко 995.9 996.0
18 21.06 С 11 30 км ?/? +31.3 +9.5 26 +31 +31 жарко 997.3 997.0 +39.1
21 21.06 С 11 30 км ?/? +29.4 +10.0 30 +29 +29 жарко 997.5 998.0
00 22.06 СВ 10 30 км 3/3 1500 м
[]
+30.5 +11.0 30 +31 +31 жарко 998.5 999.0
03 22.06 С 8 30 км 9/9
[]
+35.1 +9.5 21 +34 +34 очень
жарко
998.7 999.0
06 22.06 З 1 30 км 9/9 1500 м
[]
+37.7 +3.5 12 +35 +37 очень
жарко
997.3 997.0 +28.7
09 22.06 С 5
{18}
30 км 9/9 1500 м
[]
+35.5 +9.1 20 +34 +35 очень
жарко
997.1 997.0
12 22.06 С 11
{18}
30 км 9/9 1500 м
[]
+32.5 +8.7 23 +31 +31 жарко 997.8 998.0
18 22.06 СВ 5
{17}
30 км ?/? +30.0 +8.4 26 +29 +29 жарко 1000.5 923.6 +38.5
21 22.06 В 10 30 км ?/? +30.4 +0.9 15 +28 +28 жарко 1001.7 1002.0
00 23.06 ЮВ 6 30 км 9/9 1500 м
[]
+29.5 +1.1 16 +27 +27 жарко 1004.7 1005.0
03 23.06 Ю 6 30 км 9/9 1500 м
[]
+32.0 +1.2 14 +29 +30 жарко 1005.9 1006.0
06 23.06 Ю 4 30 км 9/9 1500 м
[]
+34.5 -0.2 11 +31 +32 жарко 1004.2 1004.0 +28.4
09 23.06 З 4 30 км 3/3
[]
+36.2 -0.2 10 +32 +38 жарко 1001.4 1001.0

 

Местоположение метеостанции Shisan Jianfang (Китай): широта 43.22 долгота 91.73 высота над уровнем моря 792 м.

В архиве по умолчанию представлена погода в Shisan Jianfang за последнюю неделю. Архивные данные за месяц целиком и за предыдущие месяцы, начиная с января 2011 года, Вы можете получить, выбрав интересующий диапазон дат из раскрывающегося списка и нажав кнопку "Ввод!".

Внимание! Время в таблицах - всемирное. Для получения местного времени необходимо прибавить поправку, которая в Shisan Jianfang равна 8 ч.

Смотрите также архив погоды в соседних городах и на ближайших метеорологических станциях:

Погода в Hami (Китай) (152 км)
Погода в Qitai (Китай) (195 км)
Погода в Turpan (Китай) (208 км)
Погода в Beita Shan (Китай) (258 км)
Погода в Naomaohu (Китай) (278 км)
Погода в Baitag (Монголия) (323 км)
Погода в Urumqi (Китай) (335 км)
Погода в Tonhil (Монголия) (385 км)
Погода в Jargalant (Монголия) (415 км)
Погода в Dunhuang (Китай) (420 км)

Пояснения к столбцам:

Ветер - указаны скорость ветра в м/с - средняя за 10 мин, порывы в срок и между сроками (в фигурных скобках) и направление, откуда дует ветер: С - северный, СВ - северо-восточный, В - восточный, ЮВ - юго-восточный, Ю - южный, ЮЗ - юго-западный, З - западный, СЗ - северо-западный.
Видимость - горизонтальная дальность видимости в метрах или километрах. При видимости от 1 до 10 км при отсутствии осадков обычно наблюдается дымка, при ухудшении видимости до 1 км и менее - туман. В сухую погоду видимость может ухудшаться дымом, пылью или мглою.
Явления - указаны атмосферные явления, наблюдавшиеся в срок или в последний час перед сроком; фигурными скобками обозначены явления, наблюдавшиеся между сроками (за 1-3 часа до срока); квадратными скобками обозначены град или гололедные отложения с указанием их диаметра в мм.
Облачность - указаны через наклонную черту общая и нижняя облачность в баллах и высота нижней границы облаков в метрах; квадратными скобками обозначены формы облаков: Ci - перистые, Cs - перисто-слоистые, Cc - перисто-кучевые, Ac - высококучевые, As - высокослоистые, Sc - слоисто-кучевые, Ns - слоисто-дождевые, Cu - кучевые, Cb - кучево-дождевые. Подробнее классификацию облаков см. в Атласе облаков (PDF).
T - Температура воздуха - температура, измеренная на высоте 2 м над землей.
Td - Температура точки росы - температура, при понижении до которой содержащийся в воздухе водяной пар достигнет насыщения.
f - Относительная влажность воздуха - влажноcть воздуха, измеренная на высоте 2 м над землей.
Te - Эффективная температура - температура, которую ощущает одетый по сезону человек в тени. Характеристика душности погоды. При расчете учитывается влияние влажности воздуха и скорости ветра на теплоощущения человека.
Tes - Эффективная температура на солнце - температура, которую ощущает человек, с поправкой на солнечный нагрев. Характеристика знойности погоды. Зависит от высоты солнца над горизонтом, облачности и скорости ветра. Ночью, в пасмурную погоду, а также при ветре 12 м/с и более поправка равна нулю.
P - Атмосферное давление - приведенное к уровню моря атмосферное давление.
Po - Атмосферное давление - измеренное на уровне метеостанции атмосферное давление.
Tmin - Минимальная температура - минимум температуры воздуха на высоте 2 м над землей.
Tmax - Максимальная температура - максимум температуры воздуха на высоте 2 м над землей.
R - Количество осадков - Количество выпавших осадков за период времени, мм. При наведении курсора мыши на число - период времени, за который выпало указанное количество осадков.
R24 - Количество осадков - Количество выпавших осадков за 24 часа, мм.
S - Снежный покров - Высота снежного покрова, см. При наведении курсора мыши на число - состояние снежного покрова и степень покрытия местности в баллах.